• In Switzerland
  • List of Countries
  • For 7 days
  • Water Temperature
  • Satellite Maps
  • Weather Map
  • Weather Widgets
  • user-avatar
    Login

    Hourly Weather Álftanes

    Today, 21 October, Sunday

    Time Temperature Precipitation Wind Pressure Humidity
    00:00 +14°C° 0 mm 3 mps 765 mmHg 96%
    01:00 +14°C° 0 mm 3 mps 765 mmHg 96%
    02:00 +14°C° 0 mm 3 mps 765 mmHg 96%
    03:00 +14°C° 0.1 mm 4 mps 765 mmHg 96%
    04:00 +14°C° 0.1 mm 4 mps 765 mmHg 96%
    05:00 +14°C° 0.1 mm 4 mps 765 mmHg 96%
    06:00 +13°C° 0.4 mm 4 mps 765 mmHg 94%
    07:00 +12°C° 0.4 mm 4 mps 766 mmHg 93%
    08:00 +11°C° 0.4 mm 4 mps 766 mmHg 92%
    09:00 +11°C° 0.1 mm 4 mps 767 mmHg 91%
    10:00 +11°C° 0.1 mm 3 mps 768 mmHg 91%
    11:00 +11°C° 0.1 mm 3 mps 768 mmHg 90%
    12:00 +11°C° 0 mm 4 mps 769 mmHg 85%
    13:00 +12°C° 0 mm 4 mps 769 mmHg 80%
    14:00 +12°C° 0 mm 5 mps 770 mmHg 75%
    15:00 +11°C° 0 mm 4 mps 771 mmHg 78%
    16:00 +8°C° 0 mm 4 mps 771 mmHg 80%
    17:00 +8°C° 0 mm 3 mps 772 mmHg 83%
    18:00 +7°C° 0 mm 3 mps 772 mmHg 84%
    19:00 +7°C° 0 mm 2 mps 773 mmHg 86%
    20:00 +6°C° 0 mm 2 mps 774 mmHg 87%
    21:00 +6°C° 0 mm 2 mps 774 mmHg 88%
    22:00 +5°C° 0 mm 2 mps 775 mmHg 88%
    23:00 +5°C° 0 mm 2 mps 775 mmHg 89%

    Tomorrow, 22 October, Monday

    Time Temperature Precipitation Wind Pressure Humidity
    00:00 +5°C° 0 mm 2 mps 775 mmHg 89%
    01:00 +6°C° 0 mm 1 mps 776 mmHg 89%
    02:00 +6°C° 0 mm 1 mps 776 mmHg 90%
    03:00 +5°C° 0 mm 1 mps 776 mmHg 90%
    04:00 +5°C° 0 mm 1 mps 777 mmHg 90%
    05:00 +5°C° 0 mm 1 mps 777 mmHg 90%
    06:00 +6°C° 0 mm 1 mps 777 mmHg 87%
    07:00 +6°C° 0 mm 2 mps 778 mmHg 84%
    08:00 +7°C° 0 mm 2 mps 778 mmHg 82%
    09:00 +8°C° 0 mm 2 mps 778 mmHg 78%
    10:00 +10°C° 0 mm 3 mps 778 mmHg 74%
    11:00 +11°C° 0 mm 3 mps 778 mmHg 70%
    12:00 +11°C° 0 mm 3 mps 778 mmHg 71%
    13:00 +12°C° 0 mm 4 mps 778 mmHg 72%
    14:00 +12°C° 0 mm 4 mps 777 mmHg 73%
    15:00 +10°C° 0 mm 3 mps 777 mmHg 79%
    16:00 +9°C° 0 mm 3 mps 777 mmHg 85%
    17:00 +8°C° 0 mm 3 mps 777 mmHg 91%
    18:00 +8°C° 0 mm 3 mps 777 mmHg 92%
    19:00 +7°C° 0 mm 3 mps 777 mmHg 94%
    20:00 +7°C° 0 mm 3 mps 777 mmHg 95%
    21:00 +7°C° 0 mm 3 mps 777 mmHg 95%
    22:00 +8°C° 0 mm 3 mps 777 mmHg 95%
    23:00 +8°C° 0 mm 3 mps 777 mmHg 96%

    Day after tomorrow, 23 October, Tuesday

    Time Temperature Precipitation Wind Pressure Humidity
    00:00 +8°C° 0 mm 3 mps 776 mmHg 96%
    01:00 +7°C° 0 mm 4 mps 776 mmHg 96%
    02:00 +7°C° 0 mm 4 mps 775 mmHg 96%
    03:00 +7°C° 0 mm 4 mps 775 mmHg 95%
    04:00 +8°C° 0 mm 4 mps 775 mmHg 95%
    05:00 +8°C° 0 mm 4 mps 775 mmHg 95%
    06:00 +8°C° 0 mm 4 mps 775 mmHg 93%
    07:00 +10°C° 0 mm 4 mps 775 mmHg 91%
    08:00 +9°C° 0 mm 5 mps 775 mmHg 90%
    09:00 +10°C° 0 mm 5 mps 774 mmHg 85%
    10:00 +12°C° 0 mm 5 mps 774 mmHg 81%
    11:00 +13°C° 0 mm 5 mps 774 mmHg 76%
    12:00 +13°C° 0 mm 5 mps 774 mmHg 76%
    13:00 +14°C° 0 mm 5 mps 774 mmHg 76%
    14:00 +14°C° 0 mm 5 mps 773 mmHg 76%
    15:00 +12°C° 0 mm 4 mps 773 mmHg 82%
    16:00 +11°C° 0 mm 3 mps 773 mmHg 87%
    17:00 +9°C° 0 mm 3 mps 773 mmHg 93%
    18:00 +9°C° 0 mm 3 mps 774 mmHg 94%
    19:00 +8°C° 0 mm 3 mps 774 mmHg 95%
    20:00 +8°C° 0 mm 2 mps 774 mmHg 97%
    21:00 +8°C° 0 mm 2 mps 774 mmHg 97%
    22:00 +8°C° 0 mm 2 mps 774 mmHg 97%
    23:00 +7°C° 0 mm 2 mps 774 mmHg 97%

    24 October, Wednesday

    Time Temperature Precipitation Wind Pressure Humidity
    00:00 +7°C° 0 mm 2 mps 773 mmHg 98%
    01:00 +7°C° 0 mm 2 mps 773 mmHg 98%
    02:00 +7°C° 0 mm 2 mps 773 mmHg 98%
    03:00 +7°C° 0 mm 2 mps 773 mmHg 98%
    04:00 +7°C° 0 mm 2 mps 773 mmHg 98%
    05:00 +7°C° 0 mm 2 mps 772 mmHg 98%
    06:00 +7°C° 0 mm 2 mps 773 mmHg 97%
    07:00 +8°C° 0 mm 2 mps 773 mmHg 96%
    08:00 +9°C° 0 mm 2 mps 773 mmHg 95%
    09:00 +10°C° 0 mm 2 mps 773 mmHg 91%
    10:00 +12°C° 0 mm 2 mps 773 mmHg 87%
    11:00 +13°C° 0 mm 2 mps 772 mmHg 83%
    12:00 +13°C° 0 mm 2 mps 772 mmHg 82%
    13:00 +13°C° 0 mm 2 mps 772 mmHg 81%
    14:00 +13°C° 0 mm 2 mps 771 mmHg 81%
    15:00 +12°C° 0 mm 2 mps 771 mmHg 85%
    16:00 +9°C° 0 mm 2 mps 771 mmHg 89%
    17:00 +9°C° 0 mm 1 mps 770 mmHg 94%
    18:00 +9°C° 0 mm 1 mps 770 mmHg 94%
    19:00 +8°C° 0 mm 1 mps 770 mmHg 95%
    20:00 +7°C° 0 mm 1 mps 770 mmHg 96%
    21:00 +7°C° 0 mm 1 mps 770 mmHg 96%
    22:00 +7°C° 0 mm 1 mps 770 mmHg 97%
    23:00 +6°C° 0 mm 1 mps 769 mmHg 97%

    25 October, Thursday

    Time Temperature Precipitation Wind Pressure Humidity
    00:00 +6°C° 0 mm 1 mps 769 mmHg 97%
    01:00 +6°C° 0 mm 1 mps 768 mmHg 97%
    02:00 +6°C° 0 mm 1 mps 768 mmHg 97%
    03:00 +6°C° 0 mm 1 mps 767 mmHg 97%
    04:00 +6°C° 0 mm 1 mps 767 mmHg 97%
    05:00 +5°C° 0 mm 1 mps 767 mmHg 97%
    06:00 +6°C° 0 mm 1 mps 766 mmHg 96%
    07:00 +7°C° 0 mm 1 mps 766 mmHg 95%
    08:00 +8°C° 0 mm 1 mps 766 mmHg 94%
    09:00 +8°C° 0 mm 2 mps 765 mmHg 90%
    10:00 +9°C° 0 mm 2 mps 765 mmHg 87%
    11:00 +10°C° 0 mm 3 mps 765 mmHg 83%
    12:00 +10°C° 0 mm 3 mps 764 mmHg 83%
    13:00 +10°C° 0 mm 3 mps 763 mmHg 84%
    14:00 +10°C° 0 mm 3 mps 763 mmHg 84%
    15:00 +10°C° 0 mm 3 mps 762 mmHg 86%
    16:00 +9°C° 0 mm 3 mps 761 mmHg 88%
    17:00 +9°C° 0 mm 3 mps 761 mmHg 90%
    18:00 +9°C° 0.1 mm 3 mps 760 mmHg 90%
    19:00 +9°C° 0.1 mm 3 mps 760 mmHg 90%
    20:00 +8°C° 0.1 mm 4 mps 760 mmHg 91%
    21:00 +8°C° 0.4 mm 4 mps 759 mmHg 90%
    22:00 +8°C° 0.4 mm 5 mps 759 mmHg 90%
    23:00 +7°C° 0.4 mm 5 mps 759 mmHg 90%

    26 October, Friday

    Time Temperature Precipitation Wind Pressure Humidity
    00:00 +6°C° 0.1 mm 5 mps 759 mmHg 90%
    01:00 +6°C° 0.1 mm 4 mps 759 mmHg 90%
    02:00 +5°C° 0.1 mm 4 mps 759 mmHg 89%
    03:00 +4°C° 0 mm 4 mps 759 mmHg 89%
    04:00 +4°C° 0 mm 4 mps 760 mmHg 89%
    05:00 +3°C° 0 mm 4 mps 760 mmHg 89%
    06:00 +4°C° 0 mm 4 mps 760 mmHg 87%
    07:00 +5°C° 0 mm 4 mps 760 mmHg 86%
    08:00 +5°C° 0 mm 4 mps 761 mmHg 85%
    09:00 +6°C° 0.1 mm 5 mps 761 mmHg 80%
    10:00 +7°C° 0.1 mm 5 mps 761 mmHg 75%
    11:00 +8°C° 0.1 mm 6 mps 761 mmHg 69%
    12:00 +8°C° 0.1 mm 6 mps 761 mmHg 70%
    13:00 +8°C° 0.1 mm 6 mps 761 mmHg 70%
    14:00 +8°C° 0.1 mm 6 mps 761 mmHg 70%
    15:00 +7°C° 0 mm 5 mps 761 mmHg 74%
    16:00 +5°C° 0 mm 4 mps 762 mmHg 78%
    17:00 +4°C° 0 mm 3 mps 762 mmHg 81%
    18:00 +4°C° 0.2 mm 3 mps 762 mmHg 83%
    19:00 +4°C° 0.2 mm 3 mps 762 mmHg 85%
    20:00 +4°C° 0.2 mm 3 mps 763 mmHg 87%
    21:00 +4°C° 0.4 mm 3 mps 763 mmHg 87%
    22:00 +4°C° 0.4 mm 4 mps 763 mmHg 88%
    23:00 +3°C° 0.4 mm 4 mps 763 mmHg 88%
    Show more